Regional Weather Roundup
Issued by NWS Albany, NY

Home | Current Version | Previous Version | Graphics & Text | Print | Product List | Glossary Off
Versions: 1 2 3 4 5 6 7 8 9 10 11 12 13 14 15 16 17 18 19 20 21 22 23 24 25 26 27 28 29 30 31 32 33 34 35 36 37 38 39 40 41 42 43 44 45 46 47 48 49 50

080
ASUS41 KALY 071810
RWRALY

NEW YORK STATE HOURLY WEATHER ROUNDUP
NATIONAL WEATHER SERVICE ALBANY NY
100 PM EST WED DEC 07 2016

NOTE: "FAIR" INDICATES FEW OR NO CLOUDS BELOW 12,000 FEET WITH NO
SIGNIFICANT WEATHER AND/OR NO OBSTRUCTIONS TO VISIBILITY.

NYZ032-033-038>043-046>054-057>066-NYZ062>081-082-084-071900-
EAST


CITY           SKY/WX    TMP DP  RH WIND       PRES   REMARKS
ALBANY         CLOUDY    38  36  92 S10       29.95F WCI  31
GLENS FALLS    CLOUDY    37  33  85 SW3       29.93S FOG
POUGHKEEPSIE   PTSUNNY   40  36  86 SW6       29.94F
NEWBURGH       PTSUNNY   41  39  93 VRB5      29.96F
MONTGOMERY     CLOUDY    40  37  89 CALM      29.94F
WHITE PLAINS   CLOUDY    41  37  86 NW6       29.94F
ISLIP          CLOUDY    45  40  82 VRB3      29.94F
NEW YORK CITY  CLOUDY    46  39  76 VRB5      29.96F
CENTRAL PARK   CLOUDY    42  38  85 VRB3      29.98F FOG
$$

NYZ005>009-017-018-044>046-055-056-071900-
CENTRAL


CITY           SKY/WX    TMP DP  RH WIND       PRES   REMARKS
FULTON         PTSUNNY   41  30  65 W17G25    29.95S
SYRACUSE       CLOUDY    41  32  70 W12       29.94F
ROME           PTSUNNY   39  32  76 W15       29.94F WCI  31
ELMIRA         PTSUNNY   43  26  51 W12       29.94F
BINGHAMTON     MOSUNNY   37  30  75 W9        29.90S WCI  30
MONTICELLO     CLOUDY    34  34 100 W3        29.92F
$$

NYZ026>034-041>043-087-071900-
NORTH


CITY           SKY/WX    TMP DP  RH WIND       PRES   REMARKS
WATERTOWN      CLOUDY    41  32  70 SW15G24   29.90S
FORT DRUM      NOT AVBL
OGDENSBURG     FAIR      41  33  73 W10G16    29.86F
MASSENA        PTSUNNY   40  32  73 SW13      29.86S WCI  32
SARANAC LAKE   CLOUDY    35  30  82 W10       29.82R WCI  27
PLATTSBURGH    CLOUDY    39  33  79 S6        29.86S WCI  35
$$

NYZ001>004-010>016-019>021-085-071900-
WEST


CITY           SKY/WX    TMP DP  RH WIND       PRES   REMARKS
NIAGARA FALLS  PTSUNNY   39  25  57 W18G29    29.95F WCI  30
BUFFALO        MOSUNNY   39  28  64 W20G26    29.94F WCI  29
DUNKIRK        CLOUDY    36  27  69 SW15      29.98F WCI  27
JAMESTOWN      PTSUNNY   34  21  60 W8        29.95F WCI  27
WELLSVILLE     MOSUNNY   39  25  57 VRB7G20   29.93S WCI  34
ROCHESTER      CLOUDY    40  29  64 W10       29.95S WCI  33
PENN YAN       CLOUDY    41  26  55 SW8       29.95R
$$

             KEY
       WCI = WIND CHILL INDEX
       VSB = VISIBILITY
       HX  = HEAT INDEX
$$




USA.gov is the U.S. government's official web portal to all federal, state and local government web resources and services.